Time,TemperatureF,DewpointF,PressureIn,WindDirection,WindDirectionDegrees,WindSpeedMPH,WindSpeedGustMPH,Humidity,HourlyPrecipIn,Conditions,Clouds,dailyrainin,SoftwareType,DateUTC
2013-04-06 00:03:00,38.0,26.0,29.84,NNW,336,2.0,2.0,62,0.00,,,0.00,,2013-04-06 04:03:00,
2013-04-06 00:14:00,38.0,26.0,29.84,NNW,336,2.0,2.0,62,0.00,,,0.00,,2013-04-06 04:14:00,
2013-04-06 00:23:00,38.0,26.0,29.84,NNE,18,1.0,13.0,61,0.00,,,0.00,,2013-04-06 04:23:00,
2013-04-06 00:33:00,37.0,24.0,29.85,ENE,69,1.0,2.0,60,0.00,,,0.00,,2013-04-06 04:33:00,
2013-04-06 00:42:00,37.0,24.0,29.85,ENE,69,1.0,2.0,60,0.00,,,0.00,,2013-04-06 04:42:00,
2013-04-06 00:53:00,37.0,24.0,29.85,West,264,3.0,6.0,60,0.00,,,0.00,,2013-04-06 04:53:00,
2013-04-06 01:02:00,37.0,24.0,29.85,NNW,342,0.0,4.0,60,0.00,,,0.00,,2013-04-06 05:02:00,
2013-04-06 01:13:00,37.0,24.0,29.85,NNW,342,0.0,4.0,60,0.00,,,0.00,,2013-04-06 05:13:00,
2013-04-06 01:22:00,36.0,24.0,29.86,North,355,0.0,2.0,61,0.00,,,0.00,,2013-04-06 05:22:00,
2013-04-06 01:32:00,36.0,24.0,29.86,NNE,13,1.0,5.0,61,0.00,,,0.00,,2013-04-06 05:32:00,
2013-04-06 01:42:00,36.0,24.0,29.86,NNE,13,1.0,5.0,61,0.00,,,0.00,,2013-04-06 05:42:00,
2013-04-06 01:52:00,36.0,23.0,29.87,NE,37,0.0,4.0,60,0.00,,,0.00,,2013-04-06 05:52:00,
2013-04-06 02:03:00,36.0,23.0,29.87,North,8,2.0,4.0,60,0.00,,,0.00,,2013-04-06 06:03:00,
2013-04-06 02:12:00,36.0,23.0,29.87,North,8,2.0,4.0,60,0.00,,,0.00,,2013-04-06 06:12:00,
2013-04-06 02:22:00,35.0,23.0,29.88,NNE,30,0.0,4.0,60,0.00,,,0.00,,2013-04-06 06:22:00,
2013-04-06 02:32:00,35.0,23.0,29.88,ENE,74,0.0,4.0,60,0.00,,,0.00,,2013-04-06 06:32:00,
2013-04-06 02:42:00,35.0,23.0,29.88,ENE,74,0.0,4.0,60,0.00,,,0.00,,2013-04-06 06:42:00,
2013-04-06 02:53:00,35.0,22.0,29.89,North,7,0.0,6.0,58,0.00,,,0.00,,2013-04-06 06:53:00,
2013-04-06 03:03:00,34.0,20.0,29.89,North,354,0.0,5.0,57,0.00,,,0.00,,2013-04-06 07:03:00,
2013-04-06 03:12:00,34.0,20.0,29.89,North,354,0.0,5.0,57,0.00,,,0.00,,2013-04-06 07:12:00,
2013-04-06 03:22:00,34.0,20.0,29.90,North,358,1.0,7.0,56,0.00,,,0.00,,2013-04-06 07:22:00,
2013-04-06 03:33:00,34.0,20.0,29.91,NNE,20,3.0,10.0,56,0.00,,,0.00,,2013-04-06 07:33:00,
2013-04-06 03:43:00,34.0,20.0,29.91,NNE,20,3.0,10.0,56,0.00,,,0.00,,2013-04-06 07:43:00,
2013-04-06 03:52:00,34.0,19.0,29.92,NNW,342,0.0,13.0,54,0.00,,,0.00,,2013-04-06 07:52:00,
2013-04-06 04:02:00,33.0,18.0,29.93,NE,37,0.0,4.0,54,0.00,,,0.00,,2013-04-06 08:02:00,
2013-04-06 04:13:00,33.0,18.0,29.93,NE,37,0.0,4.0,54,0.00,,,0.00,,2013-04-06 08:13:00,
2013-04-06 04:22:00,33.0,18.0,29.94,North,357,2.0,6.0,54,0.00,,,0.00,,2013-04-06 08:22:00,
2013-04-06 04:32:00,32.0,17.0,29.95,North,353,1.0,6.0,54,0.00,,,0.00,,2013-04-06 08:32:00,
2013-04-06 04:42:00,32.0,17.0,29.95,North,353,1.0,6.0,54,0.00,,,0.00,,2013-04-06 08:42:00,
2013-04-06 04:52:00,32.0,17.0,29.96,NNE,18,2.0,3.0,54,0.00,,,0.00,,2013-04-06 08:52:00,
2013-04-06 05:02:00,32.0,18.0,29.97,NW,325,1.0,4.0,55,0.00,,,0.00,,2013-04-06 09:02:00,
2013-04-06 05:12:00,32.0,18.0,29.97,NW,325,1.0,4.0,55,0.00,,,0.00,,2013-04-06 09:12:00,
2013-04-06 05:22:00,31.0,18.0,29.97,NW,326,0.0,2.0,58,0.00,,,0.00,,2013-04-06 09:22:00,
2013-04-06 05:33:00,32.0,19.0,29.98,North,11,0.0,5.0,58,0.00,,,0.00,,2013-04-06 09:33:00,
2013-04-06 05:43:00,32.0,19.0,29.98,North,11,0.0,5.0,58,0.00,,,0.00,,2013-04-06 09:43:00,
2013-04-06 05:53:00,32.0,19.0,30.00,North,351,1.0,3.0,57,0.00,,,0.00,,2013-04-06 09:53:00,
2013-04-06 06:03:00,32.0,19.0,30.01,NNW,339,4.0,7.0,57,0.00,,,0.00,,2013-04-06 10:03:00,
2013-04-06 06:13:00,32.0,19.0,30.01,NNW,339,4.0,7.0,57,0.00,,,0.00,,2013-04-06 10:13:00,
2013-04-06 06:23:00,32.0,18.0,30.03,NNE,30,2.0,3.0,55,0.00,,,0.00,,2013-04-06 10:23:00,
2013-04-06 06:33:00,31.0,15.0,30.03,NNW,347,2.0,5.0,52,0.00,,,0.00,,2013-04-06 10:33:00,
2013-04-06 06:42:00,31.0,15.0,30.03,NNW,347,2.0,5.0,52,0.00,,,0.00,,2013-04-06 10:42:00,
2013-04-06 06:53:00,31.0,15.0,30.05,NE,56,1.0,7.0,52,0.00,,,0.00,,2013-04-06 10:53:00,
2013-04-06 07:02:00,31.0,15.0,30.06,North,356,2.0,7.0,50,0.00,,,0.00,,2013-04-06 11:02:00,
2013-04-06 07:12:00,31.0,15.0,30.06,North,356,2.0,7.0,50,0.00,,,0.00,,2013-04-06 11:12:00,
2013-04-06 07:23:00,30.0,13.0,30.07,NE,47,2.0,7.0,49,0.00,,,0.00,,2013-04-06 11:23:00,
2013-04-06 07:33:00,30.0,12.0,30.08,NNE,27,2.0,6.0,47,0.00,,,0.00,,2013-04-06 11:33:00,
2013-04-06 07:43:00,30.0,12.0,30.08,NNE,27,2.0,6.0,47,0.00,,,0.00,,2013-04-06 11:43:00,
2013-04-06 07:52:00,30.0,12.0,30.09,NNE,14,2.0,13.0,46,0.00,,,0.00,,2013-04-06 11:52:00,
2013-04-06 08:02:00,30.0,12.0,30.09,NE,38,4.0,6.0,46,0.00,,,0.00,,2013-04-06 12:02:00,
2013-04-06 08:13:00,30.0,12.0,30.09,NE,38,4.0,6.0,46,0.00,,,0.00,,2013-04-06 12:13:00,
2013-04-06 08:22:00,30.0,10.0,30.10,NE,46,3.0,11.0,42,0.00,,,0.00,,2013-04-06 12:22:00,
2013-04-06 08:33:00,31.0,8.0,30.11,East,93,2.0,11.0,38,0.00,,,0.00,,2013-04-06 12:33:00,
2013-04-06 08:43:00,31.0,8.0,30.11,East,93,2.0,11.0,38,0.00,,,0.00,,2013-04-06 12:43:00,
2013-04-06 08:53:00,31.0,8.0,30.11,WNW,300,2.0,13.0,38,0.00,,,0.00,,2013-04-06 12:53:00,
2013-04-06 09:03:00,31.0,8.0,30.11,ENE,65,2.0,15.0,37,0.00,,,0.00,,2013-04-06 13:03:00,
2013-04-06 09:13:00,31.0,8.0,30.11,ENE,65,2.0,15.0,37,0.00,,,0.00,,2013-04-06 13:13:00,
2013-04-06 09:24:00,32.0,10.0,30.13,NE,39,3.0,13.0,39,0.00,,,0.00,,2013-04-06 13:24:00,
2013-04-06 09:32:00,32.0,9.0,30.13,West,266,3.0,9.0,37,0.00,,,0.00,,2013-04-06 13:32:00,
2013-04-06 09:43:00,32.0,9.0,30.13,West,266,3.0,9.0,37,0.00,,,0.00,,2013-04-06 13:43:00,
2013-04-06 09:54:00,33.0,8.0,30.14,NNW,329,4.0,10.0,35,0.00,,,0.00,,2013-04-06 13:54:00,
2013-04-06 10:04:00,34.0,8.0,30.14,NE,53,0.0,11.0,33,0.00,,,0.00,,2013-04-06 14:04:00,
2013-04-06 10:12:00,34.0,8.0,30.14,NE,53,0.0,11.0,33,0.00,,,0.00,,2013-04-06 14:12:00,
2013-04-06 10:22:00,34.0,7.0,30.15,East,95,2.0,13.0,32,0.00,,,0.00,,2013-04-06 14:22:00,
2013-04-06 10:33:00,34.0,7.0,30.16,ENE,65,3.0,8.0,31,0.00,,,0.00,,2013-04-06 14:33:00,
2013-04-06 10:43:00,34.0,7.0,30.16,ENE,65,3.0,8.0,31,0.00,,,0.00,,2013-04-06 14:43:00,
2013-04-06 10:52:00,35.0,7.0,30.17,NE,44,2.0,13.0,30,0.00,,,0.00,,2013-04-06 14:52:00,
2013-04-06 11:02:00,35.0,6.0,30.17,NE,37,5.0,14.0,29,0.00,,,0.00,,2013-04-06 15:02:00,
2013-04-06 11:12:00,35.0,6.0,30.17,NE,37,5.0,14.0,29,0.00,,,0.00,,2013-04-06 15:12:00,
2013-04-06 11:23:00,36.0,5.0,30.17,NE,49,2.0,6.0,27,0.00,,,0.00,,2013-04-06 15:23:00,
2013-04-06 11:33:00,37.0,6.0,30.17,NE,47,4.0,14.0,27,0.00,,,0.00,,2013-04-06 15:33:00,
2013-04-06 11:43:00,37.0,6.0,30.17,NE,47,4.0,14.0,27,0.00,,,0.00,,2013-04-06 15:43:00,
2013-04-06 11:52:00,37.0,6.0,30.17,NE,45,3.0,12.0,27,0.00,,,0.00,,2013-04-06 15:52:00,
2013-04-06 12:05:00,38.0,6.0,30.17,NNE,20,2.0,9.0,26,0.00,,,0.00,,2013-04-06 16:05:00,
2013-04-06 12:17:00,38.0,6.0,30.17,NNE,20,2.0,9.0,26,0.00,,,0.00,,2013-04-06 16:17:00,
2013-04-06 12:23:00,38.0,5.0,30.18,East,99,2.0,7.0,25,0.00,,,0.00,,2013-04-06 16:23:00,
2013-04-06 12:33:00,39.0,5.0,30.17,NNW,335,3.0,5.0,24,0.00,,,0.00,,2013-04-06 16:33:00,
2013-04-06 12:42:00,39.0,5.0,30.17,NNW,335,3.0,5.0,24,0.00,,,0.00,,2013-04-06 16:42:00,
2013-04-06 12:53:00,38.0,4.0,30.17,NW,312,2.0,7.0,24,0.00,,,0.00,,2013-04-06 16:53:00,
2013-04-06 13:03:00,40.0,6.0,30.17,NNW,330,1.0,8.0,24,0.00,,,0.00,,2013-04-06 17:03:00,
2013-04-06 13:12:00,40.0,6.0,30.17,NNW,330,1.0,8.0,24,0.00,,,0.00,,2013-04-06 17:12:00,
2013-04-06 13:22:00,40.0,4.0,30.17,NE,39,4.0,7.0,22,0.00,,,0.00,,2013-04-06 17:22:00,
2013-04-06 13:32:00,41.0,6.0,30.18,NW,326,3.0,5.0,23,0.00,,,0.00,,2013-04-06 17:32:00,
2013-04-06 13:42:00,41.0,6.0,30.18,NW,326,3.0,5.0,23,0.00,,,0.00,,2013-04-06 17:42:00,
2013-04-06 13:52:00,41.0,5.0,30.17,WNW,303,1.0,10.0,22,0.00,,,0.00,,2013-04-06 17:52:00,
2013-04-06 14:03:00,41.0,5.0,30.17,NNW,348,1.0,5.0,22,0.00,,,0.00,,2013-04-06 18:03:00,
2013-04-06 14:12:00,41.0,5.0,30.17,NNW,348,1.0,5.0,22,0.00,,,0.00,,2013-04-06 18:12:00,
2013-04-06 14:23:00,42.0,6.0,30.17,WNW,298,3.0,6.0,22,0.00,,,0.00,,2013-04-06 18:23:00,
2013-04-06 14:32:00,42.0,6.0,30.17,NW,307,4.0,7.0,22,0.00,,,0.00,,2013-04-06 18:32:00,
2013-04-06 14:42:00,42.0,6.0,30.17,NW,307,4.0,7.0,22,0.00,,,0.00,,2013-04-06 18:42:00,
2013-04-06 14:52:00,43.0,7.0,30.17,NNE,18,0.0,5.0,22,0.00,,,0.00,,2013-04-06 18:52:00,
2013-04-06 15:03:00,42.0,7.0,30.17,North,11,2.0,5.0,23,0.00,,,0.00,,2013-04-06 19:03:00,
2013-04-06 15:12:00,42.0,7.0,30.17,North,11,2.0,5.0,23,0.00,,,0.00,,2013-04-06 19:12:00,
2013-04-06 15:23:00,42.0,5.0,30.17,ESE,113,7.0,7.0,21,0.00,,,0.00,,2013-04-06 19:23:00,
2013-04-06 15:33:00,44.0,7.0,30.17,NE,39,2.0,10.0,21,0.00,,,0.00,,2013-04-06 19:33:00,
2013-04-06 15:42:00,44.0,7.0,30.17,NE,39,2.0,10.0,21,0.00,,,0.00,,2013-04-06 19:42:00,
2013-04-06 15:53:00,44.0,8.0,30.17,NNW,342,3.0,5.0,22,0.00,,,0.00,,2013-04-06 19:53:00,
2013-04-06 16:03:00,43.0,6.0,30.17,NW,318,3.0,10.0,21,0.00,,,0.00,,2013-04-06 20:03:00,
2013-04-06 16:12:00,43.0,6.0,30.17,NW,318,3.0,10.0,21,0.00,,,0.00,,2013-04-06 20:12:00,
2013-04-06 16:23:00,44.0,7.0,30.17,NE,37,2.0,5.0,21,0.00,,,0.00,,2013-04-06 20:23:00,
2013-04-06 16:32:00,44.0,7.0,30.17,North,359,1.0,9.0,21,0.00,,,0.00,,2013-04-06 20:32:00,
2013-04-06 16:42:00,44.0,7.0,30.17,North,359,1.0,9.0,21,0.00,,,0.00,,2013-04-06 20:42:00,
2013-04-06 16:53:00,44.0,7.0,30.17,North,4,2.0,6.0,21,0.00,,,0.00,,2013-04-06 20:53:00,
2013-04-06 17:02:00,43.0,6.0,30.18,NW,317,2.0,4.0,21,0.00,,,0.00,,2013-04-06 21:02:00,
2013-04-06 17:13:00,44.0,7.0,30.18,NNW,335,3.0,5.0,21,0.00,,,0.00,,2013-04-06 21:13:00,
2013-04-06 17:22:00,44.0,7.0,30.18,NNW,335,3.0,5.0,21,0.00,,,0.00,,2013-04-06 21:22:00,
2013-04-06 17:33:00,44.0,7.0,30.19,North,357,2.0,11.0,21,0.00,,,0.00,,2013-04-06 21:33:00,
2013-04-06 17:43:00,44.0,7.0,30.19,North,357,2.0,11.0,21,0.00,,,0.00,,2013-04-06 21:43:00,
2013-04-06 17:53:00,44.0,7.0,30.19,NNW,343,2.0,11.0,21,0.00,,,0.00,,2013-04-06 21:53:00,
2013-04-06 18:03:00,43.0,6.0,30.20,NNE,26,1.0,7.0,21,0.00,,,0.00,,2013-04-06 22:03:00,
2013-04-06 18:13:00,43.0,6.0,30.20,NNE,26,1.0,7.0,21,0.00,,,0.00,,2013-04-06 22:13:00,
2013-04-06 18:23:00,43.0,6.0,30.20,NE,45,2.0,4.0,21,0.00,,,0.00,,2013-04-06 22:23:00,
2013-04-06 18:34:00,43.0,6.0,30.21,North,4,1.0,3.0,21,0.00,,,0.00,,2013-04-06 22:34:00,
2013-04-06 18:43:00,43.0,6.0,30.21,North,4,1.0,3.0,21,0.00,,,0.00,,2013-04-06 22:43:00,
2013-04-06 18:54:00,42.0,5.0,30.22,NE,49,0.0,5.0,21,0.00,,,0.00,,2013-04-06 22:54:00,
2013-04-06 19:03:00,42.0,7.0,30.22,NE,39,0.0,0.0,23,0.00,,,0.00,,2013-04-06 23:03:00,
2013-04-06 19:14:00,42.0,7.0,30.22,NE,39,0.0,0.0,23,0.00,,,0.00,,2013-04-06 23:14:00,
2013-04-06 19:23:00,41.0,5.0,30.23,ENE,63,0.0,0.0,22,0.00,,,0.00,,2013-04-06 23:23:00,
2013-04-06 19:34:00,40.0,5.0,30.23,ENE,63,0.0,0.0,23,0.00,,,0.00,,2013-04-06 23:34:00,
2013-04-06 19:42:00,40.0,5.0,30.23,ENE,63,0.0,0.0,23,0.00,,,0.00,,2013-04-06 23:42:00,
2013-04-06 19:53:00,39.0,4.0,30.23,ENE,63,0.0,0.0,23,0.00,,,0.00,,2013-04-06 23:53:00,
2013-04-06 20:02:00,39.0,4.0,30.25,ENE,63,0.0,0.0,23,0.00,,,0.00,,2013-04-07 00:02:00,
2013-04-06 20:13:00,39.0,4.0,30.25,ENE,63,0.0,0.0,23,0.00,,,0.00,,2013-04-07 00:13:00,
2013-04-06 20:22:00,39.0,4.0,30.26,ENE,63,0.0,0.0,23,0.00,,,0.00,,2013-04-07 00:22:00,
2013-04-06 20:33:00,38.0,4.0,30.26,ENE,63,0.0,0.0,23,0.00,,,0.00,,2013-04-07 00:33:00,
2013-04-06 20:43:00,38.0,4.0,30.26,ENE,63,0.0,0.0,23,0.00,,,0.00,,2013-04-07 00:43:00,
2013-04-06 20:53:00,38.0,4.0,30.26,ENE,63,0.0,0.0,24,0.00,,,0.00,,2013-04-07 00:53:00,
2013-04-06 21:02:00,37.0,5.0,30.26,ENE,63,0.0,0.0,26,0.00,,,0.00,,2013-04-07 01:02:00,
2013-04-06 21:12:00,37.0,5.0,30.26,ENE,63,0.0,0.0,26,0.00,,,0.00,,2013-04-07 01:12:00,
2013-04-06 21:23:00,37.0,4.0,30.26,ENE,63,0.0,0.0,24,0.00,,,0.00,,2013-04-07 01:23:00,
2013-04-06 21:33:00,36.0,4.0,30.27,ENE,63,0.0,0.0,25,0.00,,,0.00,,2013-04-07 01:33:00,
2013-04-06 21:43:00,36.0,4.0,30.27,ENE,63,0.0,0.0,25,0.00,,,0.00,,2013-04-07 01:43:00,
2013-04-06 21:53:00,36.0,4.0,30.27,ENE,63,0.0,0.0,25,0.00,,,0.00,,2013-04-07 01:53:00,
2013-04-06 22:03:00,35.0,4.0,30.27,ENE,63,0.0,0.0,27,0.00,,,0.00,,2013-04-07 02:03:00,
2013-04-06 22:12:00,35.0,4.0,30.27,ENE,63,0.0,0.0,27,0.00,,,0.00,,2013-04-07 02:12:00,
2013-04-06 22:23:00,35.0,9.0,30.28,ENE,63,0.0,0.0,33,0.00,,,0.00,,2013-04-07 02:23:00,
2013-04-06 22:33:00,35.0,13.0,30.27,ENE,63,0.0,0.0,39,0.00,,,0.00,,2013-04-07 02:33:00,
2013-04-06 22:43:00,35.0,13.0,30.27,ENE,63,0.0,0.0,39,0.00,,,0.00,,2013-04-07 02:43:00,
2013-04-06 22:52:00,35.0,8.0,30.28,ENE,63,0.0,0.0,32,0.00,,,0.00,,2013-04-07 02:52:00,
2013-04-06 23:02:00,35.0,7.0,30.28,ENE,63,0.0,0.0,31,0.00,,,0.00,,2013-04-07 03:02:00,
2013-04-06 23:12:00,35.0,7.0,30.28,ENE,63,0.0,0.0,31,0.00,,,0.00,,2013-04-07 03:12:00,
2013-04-06 23:22:00,33.0,7.0,30.28,ENE,63,0.0,0.0,33,0.00,,,0.00,,2013-04-07 03:22:00,
2013-04-06 23:35:00,33.0,10.0,30.28,ENE,63,0.0,0.0,37,0.00,,,0.00,,2013-04-07 03:35:00,
2013-04-06 23:55:00,32.0,10.0,30.28,ENE,65,0.0,0.0,40,0.00,,,0.00,,2013-04-07 03:55:00,